Location: Las Callecitas
(9.8750°N, 67.4611°W)
Time: 11:16:10
(UTC+00:00)

SL-24 R/B - RUBIN 2 - Pass Details

Date: 14 April 2024
Orbit: 568 x 1023 km, 64.6° (Epoch: 24 May)

Event Time Altitude Azimuth Distance (km) Brightness Sun altitude
Exits shadow 08:50:22 27° 191° (S) 1,414 5.1 -22.4°
Maximum altitude 08:53:14 72° 111° (ESE) 819 4.2 -21.7°
Drops below altitude 10° 08:58:58 10° 28° (NNE) 2,495 7.2 -20.3°
Sets 09:01:37 0° 26° (NNE) 3,504 8.0 -19.7°
